This demonstration page uses our WeatherBlox Daily Observations layout. Learn more.

Left ArrowRight Arrow

39.29038, -76.61219

Hourly Observations for November 8, 2018

Temp ( °F °C ) Dew Point ( °F °C ) Humidity (%) Winds ( mph kmh ) Pressure ( in mb ) Visibility ( mi km ) Precip ( " mm )
12:54 am 00:54 undefined 60 15.6 36 2.2 41 41 undefined N/A 30.14 1021 N/A 0.00 0.00
1:54 am 01:54 undefined 57 13.9 33 0.6 41 41 undefined N/A 30.14 1021 N/A 0.00 0.00
2:54 am 02:54 undefined 55 12.8 32 0 42 42 undefined N/A 30.14 1021 N/A 0.00 0.00
3:54 am 03:54 undefined 54 12.2 32 0 43 43 undefined N/A 30.16 1022 N/A 0.00 0.00
4:54 am 04:54 undefined 53 11.7 32 0 45 45 undefined N/A 30.18 1022 N/A 0.00 0.00
5:54 am 05:54 undefined 53 11.7 32 0 45 45 undefined N/A 30.21 1023 N/A 0.00 0.00
6:54 am 06:54 undefined 51 10.6 33 0.6 50 50 undefined N/A 30.22 1023 N/A 0.00 0.00
7:54 am 07:54 undefined 50 10 33 0.6 52 52 undefined N/A 30.25 1024 N/A 0.00 0.00
8:54 am 08:54 undefined 50 10 34 1.1 54 54 undefined N/A 30.29 1026 N/A 0.00 0.00
9:54 am 09:54 undefined 52 11.1 33 0.6 49 49 undefined N/A 30.32 1027 N/A 0.00 0.00
10:54 am 10:54 undefined 54 12.2 32 0 43 43 undefined N/A 30.32 1027 N/A 0.00 0.00
11:54 am 11:54 undefined 56 13.3 32 0 40 40 undefined N/A 30.31 1026 N/A 0.00 0.00
12:54 pm 12:54 undefined 57 13.9 32 0 39 39 undefined N/A 30.28 1025 N/A 0.00 0.00
1:54 pm 13:54 undefined 57 13.9 30 -1.1 36 36 undefined N/A 30.25 1025 N/A 0.00 0.00
2:54 pm 14:54 undefined 57 13.9 31 -0.6 37 37 undefined N/A 30.22 1023 N/A 0.00 0.00
3:54 pm 15:54 undefined 56 13.3 32 0 40 40 undefined N/A 30.24 1024 N/A 0.00 0.00
4:54 pm 16:54 undefined 56 13.3 31 -0.6 39 39 undefined N/A 30.27 1025 N/A 0.00 0.00
5:54 pm 17:54 undefined 54 12.2 32 0 43 43 undefined N/A 30.28 1025 N/A 0.00 0.00
6:54 pm 18:54 undefined 53 11.7 32 0 45 45 undefined N/A 30.29 1026 N/A 0.00 0.00
7:54 pm 19:54 undefined 53 11.7 31 -0.6 43 43 undefined N/A 30.31 1027 N/A 0.00 0.00
8:54 pm 20:54 undefined 52 11.1 32 0 47 47 undefined N/A 30.30 1026 N/A 0.00 0.00
9:54 pm 21:54 undefined 52 11.1 33 0.6 49 49 undefined N/A 30.32 1027 N/A 0.00 0.00
10:54 pm 22:54 undefined 51 10.6 33 0.6 50 50 undefined N/A 30.31 1026 N/A 0.00 0.00
11:54 pm 23:54 undefined 50 10 32 0 50 50 undefined N/A 30.31 1026 N/A 0.00 0.00

Powered by AerisWeather